Location: Deer Lodge Site
(39.6809°N, 119.9392°W)
Time: 13:59:57
(UTC-07:00)

Amateur Radio Satellites - All Passes

Search period start: 24 April 2017 13:29
Search period end: 25 April 2017 13:29
Location: Deer Lodge Site, 39.6809°N, 119.9392°W

Satellite Date Start Highest point End Downlink Frequencies (MHz)
Time Altitude Azimuth
Gurwin Techsat 1B 24 Apr 13:30:45 13:35:42 42° 70° (ENE) 13:40:42 435.225
ESTCUBE 1 24 Apr 13:34:01 13:37:35 23° 293° (WNW) 13:41:06 437.505/2401.250
50 SAT 24 Apr 13:37:54 13:41:25 76° 102° (ESE) 13:44:52 437.505
SPROUT 24 Apr 13:43:23 13:47:34 60° 285° (WNW) 13:51:44 437.525
Oscar 19 24 Apr 13:49:14 13:54:22 77° 257° (WSW) 13:59:34 437.125/150
Tancredo 1 24 Apr 13:50:12 13:51:21 11° 12° (NNE) 13:52:30 437.200
ISS 24 Apr 13:52:33 13:53:50 12° 10° (N) 13:55:06 437.550
VELOX 1 24 Apr 13:57:43 14:01:54 41° 289° (WNW) 14:06:02 145.980
RS-15 24 Apr 14:23:13 14:32:51 25° 22° (NNE) 14:42:14 29.354- 29.394
UKube-1 24 Apr 14:29:47 14:34:06 71° 285° (WNW) 14:38:22 .
AO-85 24 Apr 14:35:42 14:39:12 24° 310° (NW) 14:42:34 145.980
BEESAT 2 24 Apr 14:51:27 14:55:02 34° 115° (ESE) 14:58:41 435.950
BEESAT 3 24 Apr 14:57:51 15:01:46 70° 304° (WNW) 15:05:45 437.485
DX 1 24 Apr 14:58:15 15:01:48 25° 292° (WNW) 15:05:19 434.975-435.025
AO-7 24 Apr 15:03:34 15:11:36 58° 66° (ENE) 15:19:40 .
ITUPSAT 1 24 Apr 15:04:18 15:07:49 20° 94° (E) 15:11:19 437.325
ITAMSAT 1 24 Apr 15:09:40 15:14:43 55° 72° (ENE) 15:19:48 435.822/435.867
Gurwin Techsat 1B 24 Apr 15:11:36 15:15:47 23° 266° (W) 15:19:59 435.225
Tancredo 1 24 Apr 15:25:03 15:27:58 37° 32° (NNE) 15:30:53 437.200
ISS 24 Apr 15:28:05 15:31:05 33° 30° (NNE) 15:34:04 437.550
YUBILEINY 24 Apr 15:43:31 15:52:03 53° 77° (ENE) 16:00:34 435.215
SO-50 24 Apr 15:46:19 15:50:35 40° 52° (NE) 15:54:50 436.795
BEESAT 24 Apr 16:02:04 16:06:51 83° 103° (ESE) 16:11:37 436.000
MOZHAYETS 4 24 Apr 16:16:59 16:21:33 58° 101° (E) 16:26:06
BEESAT 2 24 Apr 16:29:45 16:32:52 22° 312° (NW) 16:36:01 435.950
RS-15 24 Apr 16:36:27 16:48:38 62° 51° (NE) 17:00:13 29.354- 29.394
ITUPSAT 1 24 Apr 16:41:19 16:45:46 40° 289° (WNW) 16:50:14 437.325
KKS-1 24 Apr 16:47:36 16:50:53 20° 94° (E) 16:54:10 437.445
ITAMSAT 1 24 Apr 16:51:11 16:54:30 17° 268° (W) 16:57:50 435.822/435.867
AO-7 24 Apr 16:57:39 17:04:42 31° 263° (W) 17:11:48 .
Tancredo 1 24 Apr 17:01:20 17:03:44 20° 227° (SW) 17:06:07 437.200
CUBESAT XI-V 24 Apr 17:01:49 17:05:57 29° 96° (E) 17:10:03 437.345
ISS 24 Apr 17:04:41 17:07:28 26° 226° (SW) 17:10:15 437.550
XW-2F 24 Apr 17:19:38 17:21:21 13° 66° (ENE) 17:23:04 145.980 - 146.000
STARS 24 Apr 17:25:55 17:29:22 22° 95° (E) 17:32:46 437.465
SO-50 24 Apr 17:27:24 17:30:46 21° 249° (WSW) 17:34:07 436.795
DOVE 4 24 Apr 17:29:55 17:34:49 39° 71° (ENE) 17:39:41 437.250
NUDT-PHONESAT 24 Apr 17:37:32 17:39:57 17° 68° (ENE) 17:42:22 437.300
CUTE-I 24 Apr 17:40:15 17:44:52 31° 67° (ENE) 17:49:30 437.470
YUBILEINY 24 Apr 17:40:59 17:48:23 32° 276° (W) 17:55:50 435.215
BEESAT 24 Apr 17:42:39 17:43:55 11° 300° (WNW) 17:45:12 436.000
MOZHAYETS 4 24 Apr 17:55:45 17:58:12 14° 296° (WNW) 18:00:39
XW-2D 24 Apr 18:05:31 18:09:08 50° 74° (ENE) 18:12:46 145.860 - 145.880
XW-2B 24 Apr 18:12:18 18:15:59 60° 75° (ENE) 18:19:42 145.730 - 145.750
LilacSat-2 24 Apr 18:20:30 18:24:14 84° 81° (E) 18:28:01 437.200
KKS-1 24 Apr 18:23:29 18:27:31 35° 290° (WNW) 18:31:32 437.445
XW-2C 24 Apr 18:24:03 18:27:47 88° 83° (E) 18:31:33 145.795 - 145.815
KAITUO 1B 24 Apr 18:27:28 18:31:09 76° 77° (ENE) 18:34:51 145.475/437.950
HO-68 24 Apr 18:34:30 18:40:39 33° 62° (ENE) 18:46:49 435.675
CUBESAT XI-V 24 Apr 18:39:14 18:43:12 27° 292° (WNW) 18:47:09 437.345
SEEDS 24 Apr 18:42:32 18:43:52 11° 64° (ENE) 18:45:13 437.485
RS-15 24 Apr 18:49:43 19:00:31 40° 254° (WSW) 19:10:53 29.354- 29.394
XW-2F 24 Apr 18:51:35 18:55:06 40° 262° (W) 18:58:39 145.980 - 146.000
CUBEBUG 2 24 Apr 18:59:02 19:01:04 13° 65° (ENE) 19:03:05 437.445
STARS 24 Apr 19:01:52 19:05:42 30° 290° (WNW) 19:09:30 437.465
DOVE 4 24 Apr 19:08:11 19:12:32 25° 266° (W) 19:16:52 437.250
NUDT-PHONESAT 24 Apr 19:10:27 19:13:38 28° 263° (W) 19:16:51 437.300
CUTE-I 24 Apr 19:20:03 19:24:49 33° 263° (W) 19:29:36 437.470
NO-84 24 Apr 19:40:54 19:43:51 22° 129° (SE) 19:46:38 435.350 FM
CUTE 1.7 + AOD 2 24 Apr 19:50:29 19:54:41 77° 260° (W) 19:58:56 437.475
ZACube-1 24 Apr 19:50:40 19:53:15 16° 66° (ENE) 19:55:48 437.345
AAUSAT CUBESAT 2 24 Apr 19:54:29 19:58:14 34° 71° (ENE) 20:02:00 437.432
XW-2A 24 Apr 19:55:20 19:58:36 50° 260° (W) 20:01:53 145.665 - 145.685
STRAND 1 24 Apr 19:56:23 20:01:09 38° 98° (E) 20:05:53 437.568
AO-73 24 Apr 19:58:38 20:01:26 18° 67° (ENE) 20:04:13 145.935
SEEDS 24 Apr 20:14:53 20:19:00 62° 260° (W) 20:23:11 437.485
Oscar 11 24 Apr 20:16:13 20:19:38 24° 68° (ENE) 20:23:04 .
HO-68 24 Apr 20:21:15 20:28:05 48° 260° (W) 20:35:00 435.675
O/OREOS (USA 219) 24 Apr 20:21:17 20:25:24 32° 61° (ENE) 20:29:29 437.305
UWE-3 24 Apr 20:24:25 20:28:42 69° 76° (ENE) 20:32:54 435.000/436.395/437.385
CUBEBUG 2 24 Apr 20:32:54 20:37:14 56° 260° (W) 20:41:28 437.445
M-CUBED/EXP-1 PRIME 24 Apr 20:50:13 20:54:28 68° 290° (WNW) 20:58:20 437.505
DELFI C3 24 Apr 20:59:19 21:02:09 19° 68° (ENE) 21:05:01 145.870
NO-84 24 Apr 21:17:56 21:21:17 36° 322° (NW) 21:24:22 435.350 FM
ZACube-1 24 Apr 21:25:12 21:29:12 41° 262° (W) 21:33:10 437.345
AO-85 24 Apr 21:26:41 21:29:47 21° 49° (NE) 21:32:58 145.980
AAUSAT CUBESAT 2 24 Apr 21:30:55 21:33:46 18° 267° (W) 21:36:38 437.432
AO-73 24 Apr 21:33:30 21:37:23 36° 262° (W) 21:41:16 145.935
STRAND 1 24 Apr 21:36:01 21:40:05 25° 294° (WNW) 21:44:09 437.568
PRISM 24 Apr 21:49:58 21:52:43 17° 93° (E) 21:55:26 437.425
Oscar 11 24 Apr 21:51:56 21:55:38 28° 264° (W) 21:59:22 .
O/OREOS (USA 219) 24 Apr 22:00:59 22:04:37 24° 258° (WSW) 22:08:15 437.305
OBJECT BX 24 Apr 22:11:14 22:14:50 73° 259° (WSW) 22:18:29 145.990 - 145.960
SRMSAT 24 Apr 22:25:40 22:26:20 10° 177° (S) 22:27:00 437.500
DELFI C3 24 Apr 22:33:11 22:36:43 30° 263° (W) 22:40:17 145.870
FO-29 24 Apr 22:52:27 22:57:20 39° 99° (E) 23:02:27 435.910
ESTCUBE 1 24 Apr 22:55:37 22:59:26 28° 69° (ENE) 23:03:17 437.505/2401.250
TIGRISAT 24 Apr 22:57:53 23:02:07 59° 101° (E) 23:06:22 435.000
AO-85 24 Apr 23:06:35 23:10:13 34° 244° (WSW) 23:14:01 145.980
BEESAT 2 24 Apr 23:10:05 23:13:02 19° 47° (NE) 23:15:56 435.950
BEESAT 3 24 Apr 23:15:21 23:19:16 48° 55° (NE) 23:23:08 437.485
UNISAT 6 24 Apr 23:18:28 23:22:45 73° 284° (WNW) 23:27:03 437.425
VELOX 1 24 Apr 23:19:25 23:21:53 15° 64° (ENE) 23:24:22 145.980
LO-87 24 Apr 23:21:56 23:25:35 76° 259° (WSW) 23:29:13 145.935 - 145.965
PRISM 24 Apr 23:24:17 23:28:06 36° 289° (WNW) 23:31:53 437.425
AIST 2D 24 Apr 23:43:04 23:45:57 23° 96° (E) 23:48:50 435.315
POLYITAN 1 24 Apr 23:56:19 23:59:20 19° 94° (E) 00:02:20 437.675
QB50P2 25 Apr 00:02:28 00:05:55 24° 95° (E) 00:09:21 145.880/145.840
50 SAT 25 Apr 00:10:13 00:13:02 23° 70° (ENE) 00:15:52 437.505
DX 1 25 Apr 00:16:50 00:20:16 23° 67° (ENE) 00:23:44 434.975-435.025
NANOSAT C BR1 25 Apr 00:26:07 00:30:02 37° 98° (E) 00:33:55 145.865
ESTCUBE 1 25 Apr 00:32:24 00:36:10 26° 265° (W) 00:39:58 437.505/2401.250
BUGSAT 1 25 Apr 00:33:44 00:35:08 12° 91° (E) 00:36:32 437.445
SPROUT 25 Apr 00:35:18 00:39:34 88° 86° (E) 00:43:52 437.525
TIGRISAT 25 Apr 00:36:37 00:38:18 12° 296° (WNW) 00:40:00 435.000
FO-29 25 Apr 00:38:11 00:42:16 24° 294° (WNW) 00:46:29 435.910
BEESAT 2 25 Apr 00:47:07 00:50:59 43° 244° (WSW) 00:54:48 435.950
EO-79 25 Apr 00:52:24 00:56:37 87° 106° (ESE) 01:00:48 145.935-145.965
VELOX 1 25 Apr 00:53:31 00:57:52 53° 260° (W) 01:02:16 145.980
BEESAT 3 25 Apr 00:54:21 00:56:26 14° 251° (WSW) 00:58:29 437.485
DUCHIFAT 1 25 Apr 00:56:50 01:01:02 80° 104° (ESE) 01:05:11 145.980
AIST 2D 25 Apr 01:16:31 01:19:00 18° 291° (WNW) 01:21:30 435.315
UKube-1 25 Apr 01:22:54 01:27:13 85° 75° (ENE) 01:31:35 .
POLYITAN 1 25 Apr 01:31:25 01:35:11 33° 289° (WNW) 01:38:56 437.675
QB50P2 25 Apr 01:38:08 01:41:38 26° 291° (WNW) 01:45:08 145.880/145.840
50 SAT 25 Apr 01:43:29 01:45:56 18° 265° (W) 01:48:24 437.505
Gurwin Techsat 1B 25 Apr 01:48:44 01:52:12 17° 92° (E) 01:55:39 435.225
DX 1 25 Apr 01:52:23 01:56:17 31° 263° (W) 02:00:11 434.975-435.025
Oscar 19 25 Apr 02:01:45 02:06:39 40° 98° (E) 02:11:30 437.125/150
NANOSAT C BR1 25 Apr 02:02:40 02:05:26 17° 294° (WNW) 02:08:12 145.865
BUGSAT 1 25 Apr 02:06:54 02:10:46 49° 287° (WNW) 02:14:38 437.445
ITUPSAT 1 25 Apr 02:10:21 02:13:59 22° 66° (ENE) 02:17:39 437.325
NO-84 25 Apr 02:16:22 02:17:28 11° 25° (NNE) 02:18:32 435.350 FM
PCSat 25 Apr 02:26:47 02:31:42 37° 110° (ESE) 02:36:40 145.827
BEESAT 25 Apr 03:07:21 03:12:07 86° 72° (ENE) 03:16:53 436.000
AO-7 25 Apr 03:07:47 03:13:00 18° 91° (E) 03:18:11 .
MOZHAYETS 4 25 Apr 03:17:50 03:22:12 49° 73° (ENE) 03:26:37
ITAMSAT 1 25 Apr 03:24:09 03:27:57 20° 94° (E) 03:31:43 435.822/435.867
Gurwin Techsat 1B 25 Apr 03:27:16 03:32:28 56° 288° (WNW) 03:37:38 435.225
Oscar 19 25 Apr 03:41:34 03:45:43 25° 294° (WNW) 03:49:51 437.125/150
KKS-1 25 Apr 03:45:10 03:48:13 18° 65° (ENE) 03:51:16 437.445
ITUPSAT 1 25 Apr 03:47:10 03:51:34 37° 262° (W) 03:55:59 437.325
NO-84 25 Apr 03:52:30 03:55:22 83° 223° (SW) 03:58:11 435.350 FM
CUBESAT XI-V 25 Apr 04:04:22 04:08:13 27° 68° (ENE) 04:12:06 437.345
PCSat 25 Apr 04:10:20 04:15:07 31° 308° (NW) 04:19:57 145.827
STARS 25 Apr 04:22:00 04:25:08 19° 66° (ENE) 04:28:16 437.465
YUBILEINY 25 Apr 04:43:02 04:51:32 63° 92° (E) 05:00:05 435.215
MOZHAYETS 4 25 Apr 04:57:02 04:59:38 15° 268° (W) 05:02:14
AO-7 25 Apr 04:58:19 05:06:40 88° 291° (WNW) 05:15:01 .
ITAMSAT 1 25 Apr 05:02:40 05:07:36 46° 289° (WNW) 05:12:31 435.822/435.867
KKS-1 25 Apr 05:20:11 05:24:26 42° 261° (W) 05:28:42 437.445
CUBESAT XI-V 25 Apr 05:41:26 05:45:28 29° 264° (W) 05:49:33 437.345
STARS 25 Apr 05:57:04 06:01:11 38° 261° (W) 06:05:19 437.465
CUTE-I 25 Apr 05:59:52 06:01:51 12° 90° (E) 06:03:50 437.470
SO-50 25 Apr 06:01:21 06:04:04 16° 109° (ESE) 06:06:46 436.795
M-CUBED/EXP-1 PRIME 25 Apr 06:02:12 06:04:43 15° 58° (ENE) 06:07:14 437.505
XW-2F 25 Apr 06:24:53 06:27:42 20° 94° (E) 06:30:31 145.980 - 146.000
NUDT-PHONESAT 25 Apr 06:41:26 06:44:33 25° 96° (E) 06:47:39 437.300
YUBILEINY 25 Apr 06:41:49 06:48:55 27° 292° (WNW) 06:56:05 435.215
AO-7 25 Apr 06:52:43 06:58:20 21° 308° (NW) 07:03:57 .
RS-15 25 Apr 06:58:26 07:09:12 42° 107° (ESE) 07:20:16 29.354- 29.394
DOVE 4 25 Apr 07:07:23 07:12:04 75° 284° (WNW) 07:16:26 437.250
STRAND 1 25 Apr 07:11:19 07:16:14 51° 72° (ENE) 07:21:10 437.568
XW-2D 25 Apr 07:12:34 07:16:24 88° 103° (ESE) 07:20:13 145.860 - 145.880
XW-2B 25 Apr 07:19:29 07:23:17 78° 283° (WNW) 07:27:06 145.730 - 145.750
LilacSat-2 25 Apr 07:28:31 07:32:16 55° 286° (WNW) 07:36:02 437.200
XW-2C 25 Apr 07:31:23 07:35:06 53° 286° (WNW) 07:38:50 145.795 - 145.815
KAITUO 1B 25 Apr 07:33:12 07:36:57 65° 284° (WNW) 07:40:41 145.475/437.950
M-CUBED/EXP-1 PRIME 25 Apr 07:33:59 07:38:32 68° 254° (WSW) 07:43:13 437.505
CUTE 1.7 + AOD 2 25 Apr 07:36:52 07:39:59 19° 93° (E) 07:43:06 437.475
CUTE-I 25 Apr 07:37:08 07:42:27 78° 286° (WNW) 07:47:45 437.470
SO-50 25 Apr 07:39:32 07:44:05 56° 305° (NW) 07:48:35 436.795
HO-68 25 Apr 07:49:42 07:56:13 36° 97° (E) 08:02:41 435.675
XW-2F 25 Apr 07:58:37 08:01:48 26° 289° (WNW) 08:04:59 145.980 - 146.000
Tancredo 1 25 Apr 07:59:46 08:01:29 14° 130° (SE) 08:03:12 437.200
SEEDS 25 Apr 07:59:53 08:03:16 23° 94° (E) 08:06:38 437.485
ISS 25 Apr 08:08:40 08:10:27 14° 130° (SE) 08:12:15 437.550
NUDT-PHONESAT 25 Apr 08:15:34 08:18:18 20° 291° (WNW) 08:21:02 437.300
UWE-3 25 Apr 08:16:03 08:18:14 14° 92° (E) 08:20:26 435.000/436.395/437.385
CUBEBUG 2 25 Apr 08:24:31 08:28:10 29° 97° (E) 08:31:49 437.445
PRISM 25 Apr 08:39:42 08:41:17 12° 63° (ENE) 08:42:52 437.425
XW-2A 25 Apr 08:50:31 08:53:43 41° 286° (WNW) 08:56:53 145.665 - 145.685
STRAND 1 25 Apr 08:52:16 08:55:41 18° 268° (W) 08:59:06 437.568
FO-29 25 Apr 09:05:36 09:09:33 18° 63° (ENE) 09:13:15 435.910
RS-15 25 Apr 09:09:15 09:21:11 62° 309° (NW) 09:33:29 29.354- 29.394
CUTE 1.7 + AOD 2 25 Apr 09:12:00 09:15:53 34° 289° (WNW) 09:19:45 437.475
AAUSAT CUBESAT 2 25 Apr 09:12:06 09:16:17 73° 101° (E) 09:20:28 437.432
ZACube-1 25 Apr 09:13:49 09:17:43 36° 98° (E) 09:21:40 437.345
CUTE-I 25 Apr 09:21:22 09:21:35 10° 303° (WNW) 09:21:47 437.470
AO-73 25 Apr 09:21:35 09:25:34 40° 98° (E) 09:29:36 145.935
Tancredo 1 25 Apr 09:34:03 09:37:05 52° 326° (NW) 09:40:08 437.200
SEEDS 25 Apr 09:35:15 09:38:55 29° 290° (WNW) 09:42:36 437.485
HO-68 25 Apr 09:37:16 09:43:58 43° 294° (WNW) 09:50:39 435.675
Oscar 11 25 Apr 09:39:04 09:43:20 53° 100° (E) 09:47:35 .
ISS 25 Apr 09:43:23 09:46:35 57° 325° (NW) 09:49:48 437.550
UWE-3 25 Apr 09:50:55 09:54:54 45° 287° (WNW) 09:58:57 435.000/436.395/437.385
TIGRISAT 25 Apr 09:55:32 09:59:44 46° 73° (ENE) 10:03:52 435.000
CUBEBUG 2 25 Apr 10:01:27 10:04:37 21° 292° (WNW) 10:07:49 437.445
DELFI C3 25 Apr 10:10:40 10:14:18 32° 97° (E) 10:17:54 145.870
PRISM 25 Apr 10:11:57 10:16:01 59° 259° (WSW) 10:20:09 437.425
UNISAT 6 25 Apr 10:16:02 10:20:28 86° 76° (ENE) 10:24:50 437.425
O/OREOS (USA 219) 25 Apr 10:32:24 10:36:42 42° 106° (ESE) 10:41:04 437.305
FO-29 25 Apr 10:47:42 10:54:12 70° 257° (WSW) 10:59:58 435.910
POLYITAN 1 25 Apr 10:49:01 10:51:11 14° 65° (ENE) 10:53:21 437.675
ZACube-1 25 Apr 10:50:50 10:53:44 18° 293° (WNW) 10:56:40 437.345
QB50P2 25 Apr 10:54:48 10:57:37 17° 66° (ENE) 11:00:25 145.880/145.840
AO-73 25 Apr 10:58:48 11:01:30 17° 293° (WNW) 11:04:14 145.935
Tancredo 1 25 Apr 11:12:00 11:13:34 13° 344° (NNW) 11:15:07 437.200
OBJECT BX 25 Apr 11:14:23 11:17:55 47° 285° (WNW) 11:21:27 145.990 - 145.960
PCSat 25 Apr 11:15:20 11:19:56 27° 50° (NE) 11:24:31 145.827
Oscar 11 25 Apr 11:16:46 11:19:00 14° 295° (WNW) 11:21:13 .
NANOSAT C BR1 25 Apr 11:17:29 11:20:58 26° 69° (ENE) 11:24:26 145.865
ISS 25 Apr 11:21:44 11:23:37 14° 344° (NNW) 11:25:30 437.550
RS-15 25 Apr 11:27:27 11:37:01 25° 338° (NNW) 11:46:39 29.354- 29.394
TIGRISAT 25 Apr 11:34:08 11:36:38 15° 268° (W) 11:39:06 435.000
EO-79 25 Apr 11:43:33 11:47:41 56° 74° (ENE) 11:51:49 145.935-145.965
DELFI C3 25 Apr 11:46:04 11:48:50 18° 293° (WNW) 11:51:34 145.870
DUCHIFAT 1 25 Apr 11:47:26 11:51:29 50° 73° (ENE) 11:55:33 145.980
AIST 2D 25 Apr 11:48:53 11:52:18 58° 260° (W) 11:55:45 435.315
O/OREOS (USA 219) 25 Apr 12:12:58 12:16:18 20° 303° (WNW) 12:19:41 437.305
POLYITAN 1 25 Apr 12:22:26 12:26:32 50° 261° (W) 12:30:38 437.675
SPROUT 25 Apr 12:23:02 12:25:35 15° 92° (E) 12:28:08 437.525
LO-87 25 Apr 12:23:08 12:26:38 51° 285° (WNW) 12:30:04 145.935 - 145.965
ESTCUBE 1 25 Apr 12:24:36 12:29:09 68° 102° (ESE) 12:33:39 437.505/2401.250
QB50P2 25 Apr 12:29:09 12:33:06 38° 262° (W) 12:37:03 145.880/145.840
VELOX 1 25 Apr 12:44:31 12:48:24 29° 96° (E) 12:52:15 145.980
NANOSAT C BR1 25 Apr 12:53:07 12:56:36 25° 264° (W) 13:00:05 145.865
BUGSAT 1 25 Apr 12:55:00 12:59:10 85° 257° (WSW) 13:03:19 437.445
PCSat 25 Apr 12:58:21 13:03:30 44° 248° (WSW) 13:08:36 145.827
ISS 25 Apr 13:00:33 13:01:13 10° 4° (N) 13:01:52 437.550
50 SAT 25 Apr 13:06:53 13:09:54 27° 97° (E) 13:12:52 437.505
Gurwin Techsat 1B 25 Apr 13:08:42 13:13:05 27° 66° (ENE) 13:17:28 435.225
UKube-1 25 Apr 13:12:07 13:14:32 15° 92° (E) 13:16:58 .
Oscar 19 25 Apr 13:17:37 13:22:37 54° 72° (ENE) 13:27:40 437.125/150
AO-85 25 Apr 13:19:36 13:23:56 87° 122° (ESE) 13:28:02 145.980
EO-79 25 Apr 13:22:21 13:23:46 11° 269° (W) 13:25:11 145.935-145.965
DUCHIFAT 1 25 Apr 13:25:34 13:27:25 13° 269° (W) 13:29:16 145.980
